Вернуться в каталог

STARLINK-5098

АктивенСвязьVLEO
NORAD 54013·PAYLOAD·🇺🇸 United States

Запущен Oct 5, 2022 с Vandenberg Space Force Base

Loading…

Ближайшие Пролёты (ближайшие 24 часа)

TLE

СвежийSource: CelesTrak SupGP

Эпоха: Sep 15, 2026, 03:06 UTC

1 54013C 22125BB  26258.12965278 -.00035376  00000+0 -10734-2 0  2588
2 54013  53.1594  62.6401 0001216 104.0166 151.8067 15.33569618    15

Отслеживайте STARLINK-5098 в реальном времени с AllMySat

Download on the App Store